Location: Sears
(37.7625°N, 100.1060°W)
Time: 05:41:20
(UTC+00:00)

X-37B - Pass Details

Date: 01 August 2021
Orbit: 381 x 393 km, 45.0° (Epoch: 29 August)

Event Time Altitude Azimuth Distance (km) Brightness Sun altitude
Exits shadow 09:40:49 31° 114° (ESE) 701 2.0 -20.9°
Drops below altitude 10° 09:43:01 10° 77° (ENE) 1,395 4.2 -20.6°
Sets 09:45:11 0° 68° (ENE) 2,251 5.6 -20.3°
